Dniprodzerzhyns'k, Ukraine

9:53 PM EEST on July 18, 2019 (GMT +0300)
Dniprodzerzhyns'k

Weather History for 34504 - August, 2005

Change the Weather History Date:

Friday, August 5, 2005

  Actual Average Record
Temperature  
Mean Temperature 76 °F -  
Max Temperature 88 °F - - ()
Min Temperature 65 °F - - ()
Cooling Degree Days 12    
Growing Degree Days 26 (Base 50)    
Moisture  
Dew Point 59 °F    
Average Humidity 56    
Maximum Humidity 83    
Minimum Humidity 24    
Precipitation  
Precipitation 0.00 in 0.05 in - ()
Sea Level Pressure  
Sea Level Pressure 29.91 in    
Wind  
Wind Speed 10 mph ()    
Max Wind Speed 20 mph    
Max Gust Speed 25 mph    
Visibility 6.1 miles    
Events      
T = Trace of Precipitation, MM = Missing Value Source: Averaged Metar Reports

Daily Weather History Graph

Daily Weather History Graph

Search for Another Location

Airport or City:

Astronomy

Aug. 05, 2005 Rise Set
Actual Time 5:19 AM EEST 8:11 PM EEST
Civil Twilight 4:43 AM EEST 8:48 PM EEST
Nautical Twilight 3:56 AM EEST 9:34 PM EEST
Astronomical Twilight 2:59 AM EEST 10:30 PM EEST
Moon 5:04 AM EEST (8/5) 8:48 PM EEST (8/5)
Length of Visible Light 16h 05m
Length of Day
14h 52m
New Moon, 0% of the Moon is Illuminated
Aug 5
New Moon
Aug 13
First Quarter
Aug 19
Full
Aug 26
Last Quarter
Sep 3
New

Hourly Weather History & Observations

Time (EEST) Temp. Heat Index Dew Point Humidity Pressure Visibility Wind Dir Wind Speed Gust Speed Precip Events Conditions
12:00 AM 71 °F - 62 °F 64% 29.93 in 6 mi East 11.2 mph - -  
12:00 AM 69.8 °F - 60.8 °F 73% 29.95 in - East 11.2 mph - N/A   Clear
12:30 AM 69.8 °F - 60.8 °F 73% 29.95 in - East 11.2 mph - N/A   Clear
1:00 AM 69.8 °F - 60.8 °F 73% 29.95 in - East 8.9 mph - N/A   Clear
1:30 AM 68.0 °F - 60.8 °F 78% 29.95 in - East 11.2 mph - N/A   Clear
2:00 AM 69.8 °F - 60.8 °F 73% 29.95 in - East 11.2 mph - N/A   Clear
3:00 AM 68 °F - 61 °F 73% 29.93 in 6 mi East 8.9 mph - -  
3:00 AM 66.2 °F - 60.8 °F 83% 29.92 in - East 8.9 mph - N/A   Clear
3:30 AM 66.2 °F - 59.0 °F 78% 29.92 in - East 6.7 mph - N/A   Clear
4:00 AM 66.2 °F - 59.0 °F 78% 29.92 in - NNE 6.7 mph - N/A   Clear
4:30 AM 66.2 °F - 60.8 °F 83% 29.92 in - NE 8.9 mph - N/A   Clear
5:00 AM 66.2 °F - 60.8 °F 83% 29.95 in - ENE 6.7 mph - N/A   Clear
5:30 AM 66.2 °F - 60.8 °F 83% 29.95 in - ENE 6.7 mph - N/A   Clear
6:00 AM 66 °F - 60 °F 74% 29.94 in 6 mi NE 8.9 mph - -  
6:00 AM 66.2 °F - 60.8 °F 83% 29.95 in - NE 8.9 mph - N/A   Clear
6:30 AM 66.2 °F - 59.0 °F 78% 29.95 in - NE 8.9 mph - N/A   Clear
7:00 AM 69.8 °F - 59.0 °F 68% 29.95 in - ENE 8.9 mph - N/A   Clear
7:30 AM 71.6 °F - 60.8 °F 69% 29.95 in - ENE 8.9 mph - N/A   Clear
8:00 AM 73.4 °F - 60.8 °F 65% 29.95 in - NE 11.2 mph - N/A   Clear
8:30 AM 77.0 °F - 62.6 °F 61% 29.95 in - NE 11.2 mph - N/A   Clear
9:00 AM 76 °F - 63 °F 56% 29.93 in 6 mi NE 11.2 mph - -  
9:00 AM 77.0 °F - 62.6 °F 61% 29.95 in - NE 11.2 mph - N/A   Clear
9:30 AM 78.8 °F - 64.4 °F 61% 29.95 in - ENE 13.4 mph - N/A   Clear
10:00 AM 80.6 °F 82.3 °F 64.4 °F 58% 29.95 in - ENE 13.4 mph - N/A   Clear
10:30 AM 84.2 °F 85.6 °F 64.4 °F 51% 29.92 in - East 15.7 mph - N/A   Clear
11:00 AM 82.4 °F 82.9 °F 60.8 °F 48% 29.92 in 6.2 mi ENE 13.4 mph 24.6 mph N/A   Scattered Clouds
11:30 AM 84.2 °F 84.4 °F 60.8 °F 45% 29.92 in 6.2 mi ENE 15.7 mph - N/A   Scattered Clouds
12:00 PM 84 °F - 62 °F 38% 29.91 in 6 mi NE 13.4 mph - -   Partly Cloudy
12:00 PM 84.2 °F 85.0 °F 62.6 °F 48% 29.92 in 6.2 mi NE 13.4 mph 24.6 mph N/A   Scattered Clouds
12:30 PM 84.2 °F 83.8 °F 59.0 °F 42% 29.92 in 6.2 mi NE 15.7 mph - N/A   Scattered Clouds
1:00 PM 87.8 °F 87.1 °F 59.0 °F 38% 29.92 in 6.2 mi NE 15.7 mph - N/A   Scattered Clouds
1:30 PM 87.8 °F 87.1 °F 59.0 °F 38% 29.92 in - ENE 15.7 mph - N/A   Clear
2:00 PM 87.8 °F 86.5 °F 57.2 °F 35% 29.92 in - ENE 13.4 mph 24.6 mph N/A   Clear
2:30 PM 87.8 °F 86.5 °F 57.2 °F 35% 29.89 in - NE 20.1 mph - N/A   Clear
3:00 PM 88 °F - 57 °F 24% 29.88 in 6 mi NE 17.9 mph - -   Partly Cloudy
3:00 PM 87.8 °F 86.1 °F 55.4 °F 33% 29.89 in - NE 17.9 mph - N/A   Clear
3:30 PM 89.6 °F 87.3 °F 53.6 °F 29% 29.89 in - NE 15.7 mph - N/A   Clear
4:00 PM 87.8 °F 86.1 °F 55.4 °F 33% 29.89 in - NE 15.7 mph - N/A   Clear
4:30 PM 87.8 °F 86.1 °F 55.4 °F 33% 29.89 in - NNE 15.7 mph - N/A   Clear
5:00 PM 86.0 °F 84.5 °F 55.4 °F 35% 29.89 in - NE 15.7 mph - N/A   Clear
5:30 PM 84.2 °F 82.8 °F 53.6 °F 35% 29.89 in - NE 15.7 mph - N/A   Clear
6:00 PM 85 °F - 56 °F 27% 29.86 in 6 mi NE 13.4 mph - -   Scattered Clouds
6:00 PM 84.2 °F 82.8 °F 53.6 °F 35% 29.89 in - NE 13.4 mph - N/A   Clear
6:30 PM 84.2 °F 83.0 °F 55.4 °F 37% 29.86 in - NE 11.2 mph - N/A   Clear
7:00 PM 82.4 °F 81.7 °F 55.4 °F 39% 29.86 in - NNE 8.9 mph - N/A   Clear
7:30 PM 78.8 °F - 57.2 °F 47% 29.86 in - NNE 11.2 mph - N/A   Clear
8:00 PM 77.0 °F - 59.0 °F 54% 29.86 in - NNE 8.9 mph - N/A   Clear
8:30 PM 75.2 °F - 59.0 °F 57% 29.89 in - NNE 8.9 mph - N/A   Clear
9:00 PM 75 °F - 60 °F 49% 29.88 in 6 mi NNE 6.7 mph - -   Scattered Clouds
9:00 PM 75.2 °F - 59.0 °F 57% 29.89 in - NNE 8.9 mph - N/A   Clear
9:30 PM 73.4 °F - 59.0 °F 61% 29.89 in - NNE 8.9 mph - N/A   Clear
10:00 PM 73.4 °F - 60.8 °F 65% 29.89 in - NNE 11.2 mph - N/A   Clear
10:30 PM 73.4 °F - 60.8 °F 65% 29.89 in - NE 11.2 mph - N/A   Clear
11:00 PM 73.4 °F - 60.8 °F 65% 29.89 in - NE 11.2 mph - N/A   Clear
11:30 PM 73.4 °F - 60.8 °F 65% 29.89 in - NE 11.2 mph - N/A   Clear